Location: Unspecified
(51.0950°N, 12.9690°E)
Time: 12:20:11
(UTC+00:00)

ATLAS 3B R/B - Pass Details

Date: 25 May 2022
Orbit: 976 x 1218 km, 63.8° (Epoch: 20 June)

Event Time Altitude Azimuth Distance (km) Brightness Sun altitude
Rises 23:36:24 0° 307° (NW) 4,004 6.1 -17.5°
Reaches altitude 10° 23:40:46 10° 283° (WNW) 3,086 5.2 -17.4°
Maximum altitude 23:43:58 13° 257° (WSW) 2,862 4.7 -17.3°
Enters shadow 23:46:33 11° 236° (SW) 3,041 4.7 -17.2°
